This is the latest recevied weather packets stored in our database for station/object IW1QQG-13. If no packets are shown the sender has not sent any weather packets the latest 1 day(s).
| Time | Temp. | Humidity | Pressure | Rain* | Wind** | Luminosity | Snow |
|---|---|---|---|---|---|---|---|
| 1778046957 | 14.44° C | 87% | 1009.5 hPa | 0 mm | 0.89 m/s, 340° | 156 W/m² | - |
| 1778046357 | 13.89° C | 88% | 1009.5 hPa | 0 mm | 0.89 m/s, 0° | 128 W/m² | - |
| 1778045757 | 12.78° C | 94% | 1009.1 hPa | 0 mm | 0.45 m/s, 216° | 47 W/m² | - |
| 1778045157 | 12.22° C | 94% | 1009.1 hPa | 0 mm | 0.45 m/s, 209° | 40 W/m² | - |
| 1778044557 | 11.67° C | 96% | 1009.1 hPa | 0 mm | 0.45 m/s, 244° | 36 W/m² | - |
| 1778043957 | 11.67° C | 96% | 1009.1 hPa | 0 mm | 0 m/s | 28 W/m² | - |
| 1778043357 | 11.67° C | 96% | 1009.1 hPa | 0 mm | 0.45 m/s, 240° | 22 W/m² | - |
| 1778042757 | 11.67° C | 96% | 1008.8 hPa | 0 mm | 0 m/s | 20 W/m² | - |
| 1778042157 | 11.67° C | 93% | 1009.1 hPa | 0 mm | 0 m/s | 8 W/m² | - |
| 1778041556 | 11.67° C | 97% | 1009.1 hPa | 0 mm | 0.89 m/s, 229° | 4 W/m² | - |
| 1778040956 | 11.67° C | 96% | 1009.1 hPa | 0 mm | 0 m/s | 2 W/m² | - |
| 1778040357 | 11.67° C | 95% | 1009.1 hPa | 0 mm | 0.89 m/s, 244° | 1 W/m² | - |
| 1778039756 | 11.67° C | 95% | 1009.1 hPa | 0 mm | 0.45 m/s, 226° | 0 W/m² | - |
| 1778039157 | 12.22° C | 91% | 1009.8 hPa | 0 mm | 0.45 m/s, 237° | 0 W/m² | - |
| 1778038556 | 12.22° C | 89% | 1009.8 hPa | 0 mm | 0.89 m/s, 337° | 0 W/m² | - |
| 1778037956 | 12.22° C | 90% | 1009.8 hPa | 0 mm | 0.89 m/s, 224° | 0 W/m² | - |
| 1778037356 | 12.78° C | 87% | 1009.8 hPa | 0 mm | 1.34 m/s, 15° | 0 W/m² | - |
| 1778036756 | 12.78° C | 89% | 1009.1 hPa | 0 mm | 0.45 m/s, 181° | 0 W/m² | - |
| 1778036156 | 12.22° C | 92% | 1009.1 hPa | 0 mm | 0.45 m/s, 240° | 0 W/m² | - |
| 1778035556 | 12.22° C | 91% | 1009.5 hPa | 0 mm | 0 m/s | 0 W/m² | - |
| 1778034956 | 12.22° C | 92% | 1009.5 hPa | 0 mm | 0 m/s | 0 W/m² | - |
| 1778034356 | 12.22° C | 92% | 1009.5 hPa | 0 mm | 0 m/s | 0 W/m² | - |
| 1778033756 | 12.22° C | 93% | 1009.8 hPa | 0 mm | 0.45 m/s, 225° | 0 W/m² | - |
| 1778033156 | 12.78° C | 90% | 1009.5 hPa | 0 mm | 0.89 m/s, 258° | 0 W/m² | - |
| 1778032556 | 12.78° C | 93% | 1010.2 hPa | 0 mm | 0 m/s | 0 W/m² | - |
* Rain latest hour (hover to see other rain measurements)
** Current wind speed in m/s (hover to see current wind gust speed)